RH
6 6 6 6 6 6 7 8 8 8 5 4 4 8 15 20 19 15 18 8 7 12 12 9 10 8 7 6 7 6 8 11 13 14 13 10 9 10 10 10 12 14 15 16 17 18 20
7 7 7 7 7 8 9 10 9 6 5 4 5 9 17 20 19 16 18 18 12 8 12 14 13 13 13 11 10 8 6 5 6 9 11 14 10 10 10 11 12 13 14 14 15 16 18
15 15 13 13 12 12 10 8 6 5 5 5 5 10 19 20 18 16 19 19 17 15 8 9 14 14 13 12 12 12 13 12 12 7 5 9 12 12 12 12 13 13 12 12 12 11 12
8 9 9 8 8 7 6 6 5 5 6 5 6 12 21 19 16 16 20 19 17 14 13 10 9 13 12 11 12 12 12 12 12 12 10 8 10 13 14 14 13 12 11 11 12 13 14
10 9 9 8 8 8 8 8 8 7 7 6 7 16 23 16 15 17 20 20 17 13 12 12 11 13 12 12 12 12 12 12 11 10 9 9 10 11 13 13 13 13 12 11 12 14 17
11 11 11 10 10 10 10 10 10 9 8 7 10 20 22 15 15 17 20 20 19 16 14 13 13 13 14 13 12 11 11 12 14 14 14 14 14 13 13 14 13 12 12 11 13 18 22
12 12 11 11 11 11 11 11 11 9 8 8 11 22 23 16 15 16 18 21 19 16 15 14 14 14 14 13 12 12 12 13 13 14 14 15 15 15 14 14 14 14 15 17 22 24 24
14 13 12 12 12 12 12 11 11 10 9 9 11 20 26 21 19 19 20 22 19 17 16 15 14 13 13 12 12 13 12 12 12 13 14 14 14 14 15 16 16 19 22 20 18 18 16
26 16 14 13 13 12 12 12 12 11 11 10 11 16 26 26 24 23 23 23 17 15 16 14 14 13 13 14 14 13 13 13 13 12 12 13 12 13 14 17 19 19 14 11 13 13 15
48 35 31 18 13 13 12 12 12 12 12 12 12 13 19 25 23 22 24 22 13 18 15 15 16 16 15 13 14 14 14 14 14 13 12 12 11 10 9 9 10 10 11 12 14 19 21
75 74 52 34 31 20 13 12 12 12 11 12 13 13 13 19 23 20 23 20 14 18 48 19 20 17 14 14 14 14 13 13 14 14 14 14 12 11 11 11 13 15 13 15 19 21 34
79 78 77 75 50 31 30 23 14 12 11 10 10 11 12 14 18 19 23 21 17 18 18 17 18 17 15 13 14 13 13 14 13 14 13 12 12 12 11 12 14 16 19 20 27 34 62
83 83 84 81 80 76 46 29 29 25 16 12 11 10 10 10 12 17 23 22 20 19 18 20 18 18 18 18 18 17 15 14 14 14 13 14 13 12 13 15 17 20 23 24 37 58 45
85 92 88 84 83 80 80 76 58 31 28 27 23 15 12 12 12 17 21 23 21 21 20 20 21 21 21 20 18 17 17 18 18 16 16 16 17 16 18 18 21 26 28 17 27 36 26
98 94 100 93 90 87 79 82 84 82 80 62 33 27 24 19 15 15 18 22 23 21 20 19 20 19 20 19 19 20 19 19 18 18 18 17 18 17 15 17 21 28 27 27 32 37 58
100 100 100 98 97 93 89 88 89 88 86 85 83 76 47 29 25 21 20 20 21 22 22 21 19 20 20 20 20 20 20 20 19 18 18 20 20 18 17 18 19 20 26 30 31 50 43
100 100 100 100 98 92 95 89 89 91 85 83 86 85 78 78 71 47 29 24 25 23 23 22 21 21 21 21 21 22 22 21 20 19 19 19 21 21 19 20 20 22 23 31 35 35 48
100 100 100 100 100 100 100 99 93 90 92 91 86 86 76 77 77 78 79 67 55 37 24 22 23 22 22 23 26 26 23 21 20 19 19 19 22 21 22 26 28 25 27 33 40 42 48
99 100 100 100 100 100 100 100 100 100 98 94 96 97 94 92 82 81 79 71 57 54 37 24 22 23 23 23 25 25 24 20 20 22 24 22 35 43 47 42 35 24 18 18 23 32 40
98 98 98 98 99 100 99 100 99 99 100 99 86 98 92 98 95 88 82 74 67 51 34 27 24 23 23 24 25 22 20 19 14 16 40 34 40 43 48 46 42 39 35 29 25 25 22
25 62 90 99 95 99 90 92 97 99 97 96 96 98 98 97 90 86 86 80 79 72 48 42 29 22 21 21 18 17 16 19 33 49 48 47 48 44 44 43 41 34 26 23 24 24 36
2 2 18 88 99 99 95 100 88 95 97 92 99 98 98 100 98 98 96 90 82 60 32 28 25 21 20 20 19 18 16 22 50 69 39 29 42 36 31 22 19 20 17 18 24 30 37
5 3 2 2 56 98 98 92 100 99 98 99 89 98 100 98 100 100 93 84 60 39 31 24 21 20 15 16 18 52 86 84 73 35 26 26 26 27 25 26 26 22 19 24 26 29 35
4 5 4 2 3 76 98 98 100 99 99 100 100 96 99 98 99 99 100 96 67 26 18 18 18 22 19 19 49 79 66 41 30 22 18 23 27 31 28 30 58 35 37 32 36 44 44
4 4 4 5 2 19 100 100 100 86 99 99 100 96 98 98 98 98 99 82 32 41 23 44 33 22 30 70 60 44 26 22 19 14 16 18 29 32 31 65 35 36 40 48 48 59 59
8 5 4 6 3 4 67 100 100 99 96 99 100 100 100 100 98 99 98 94 74 69 80 20 53 81 93 47 76 39 22 25 15 18 21 27 34 48 54 62 70 50 53 70 88 80 62
10 10 5 6 12 22 78 99 99 99 99 99 99 99 100 100 100 100 74 48 60 52 54 73 85 94 69 63 28 24 17 16 17 22 27 36 47 58 67 87 70 72 89 92 84 72 90
12 11 8 8 21 65 99 96 98 98 98 100 98 100 98 100 99 76 53 53 59 50 24 50 82 56 48 38 26 16 16 21 25 29 29 42 43 75 94 100 94 77 77 89 97 93 82
13 13 11 11 14 94 100 100 100 97 99 98 98 99 98 88 79 51 30 21 26 20 70 64 37 75 51 15 12 14 14 23 21 29 34 47 45 57 62 73 75 90 100 98 86 78 80
Wind_Speed
7 7 6 5 4 2 2 2 3 4 6 6 6 5 6 7 8 8 10 10 8 7 5 5 6 6 6 6 8 9 9 9 10 9 8 8 7 6 5 4 4 4 5 6 7 7 10
7 7 6 5 4 4 4 3 5 5 6 5 5 5 6 8 8 8 9 10 9 8 8 6 5 7 9 10 10 10 10 10 10 11 9 9 8 7 6 6 5 4 7 6 7 9 12
9 8 7 6 7 6 6 6 6 6 6 6 6 6 7 8 8 8 10 12 11 11 11 11 10 9 10 11 11 12 12 13 13 13 11 10 9 8 7 5 7 6 7 8 8 10 14
10 10 9 9 8 7 6 7 6 6 6 6 5 6 8 9 8 9 11 13 13 13 12 13 13 12 11 11 10 10 10 10 11 12 11 10 10 9 8 8 7 7 8 9 10 11 12
9 9 9 9 8 8 7 7 7 7 7 7 6 7 8 9 8 10 12 14 15 14 14 13 13 13 10 6 8 10 11 10 9 7 6 7 8 8 8 8 9 8 8 8 9 11 13
9 9 10 9 9 9 9 8 8 7 7 8 7 7 8 9 10 11 13 15 15 16 13 13 13 8 8 13 14 13 12 10 10 9 9 8 8 9 9 10 8 7 9 11 11 12 15
9 9 10 9 10 10 10 9 9 8 8 8 8 8 8 9 10 11 14 16 17 16 15 14 15 16 15 13 13 10 8 6 5 6 6 7 7 9 10 10 12 13 12 12 11 13 16
9 10 10 10 9 9 10 9 9 9 9 8 9 9 9 9 9 12 13 16 17 17 18 18 16 15 14 12 7 5 2 2 2 1 1 3 5 5 6 7 7 9 10 12 14 17 19
9 10 10 10 10 10 10 10 9 9 9 10 10 10 10 10 11 11 13 15 17 17 18 17 11 8 6 5 3 3 3 2 1 2 2 4 5 6 7 8 10 13 16 17 16 17 19
9 10 10 10 10 10 10 10 10 11 11 11 11 11 11 11 12 13 14 15 14 14 12 6 5 2 3 2 3 4 4 4 4 4 6 7 7 7 9 12 14 16 15 15 15 14 8
11 11 11 10 11 11 10 11 11 11 11 12 12 12 12 12 14 14 14 15 13 13 5 3 3 4 2 3 5 5 7 7 8 9 11 10 12 14 16 16 15 14 14 15 16 20 21
15 13 13 12 10 11 11 10 11 11 12 12 13 13 12 13 14 14 14 14 12 6 4 3 6 4 4 6 8 10 11 12 14 15 15 15 16 16 16 13 12 13 14 19 19 18 7
20 17 15 14 14 12 10 10 10 12 13 12 13 13 13 13 13 14 14 13 7 4 5 3 3 9 10 12 13 13 14 15 13 11 10 13 14 17 18 16 15 14 11 5 3 2 6
22 20 18 17 16 16 13 12 10 10 11 13 14 14 14 14 13 14 14 12 4 6 9 15 16 16 16 16 16 13 13 16 17 16 15 10 7 10 10 10 8 7 9 5 6 4 4
24 21 21 21 19 17 17 15 13 11 11 11 12 14 14 14 14 15 14 11 7 11 10 11 17 19 14 10 10 16 16 17 16 10 7 5 6 6 9 12 11 7 11 13 13 18 8
23 24 21 22 21 20 19 17 16 15 14 15 14 14 14 14 14 15 16 17 16 17 20 20 20 12 17 18 14 11 9 9 12 13 14 11 10 11 15 14 16 17 15 9 7 4 5
26 22 21 24 26 25 25 22 21 18 18 17 18 18 18 17 16 15 17 18 19 19 19 16 18 19 22 21 20 19 12 15 16 18 15 15 14 12 13 12 16 18 20 17 14 12 3
14 23 22 21 21 20 21 23 21 21 19 19 20 22 18 20 21 23 23 22 21 21 19 18 20 22 23 22 23 19 17 17 15 12 13 16 14 13 19 21 22 21 20 18 11 7 10
33 31 25 16 23 17 17 18 17 16 21 21 21 20 23 25 23 22 22 22 22 23 23 22 20 22 22 20 14 10 14 15 15 16 9 10 9 11 10 12 12 14 13 17 21 25 21
41 33 31 35 27 18 22 24 20 17 19 19 22 23 23 24 23 23 19 19 20 21 20 20 21 21 21 20 19 14 14 13 12 14 21 23 21 23 22 26 27 23 24 23 21 20 28
41 34 31 32 33 30 27 30 26 25 22 25 24 21 21 21 18 23 24 24 24 24 22 21 22 19 17 20 20 22 22 20 17 21 21 20 26 28 29 30 32 33 30 26 27 29 26
35 32 32 37 29 28 34 25 31 29 25 23 26 26 29 26 26 26 26 27 24 20 21 22 20 19 20 21 21 20 17 19 25 27 20 21 24 27 29 27 29 32 30 27 26 25 29
32 33 31 31 32 30 27 30 25 26 23 25 24 24 27 25 25 25 25 25 22 19 19 18 16 17 18 18 15 16 26 32 27 24 23 23 22 18 11 15 19 24 15 13 14 13 15
30 32 32 32 33 34 32 29 33 26 27 28 28 24 23 26 25 26 30 29 24 22 21 20 19 19 18 15 22 25 26 26 25 26 25 23 20 16 14 15 3 5 5 7 9 15 16
25 28 30 31 31 32 31 30 22 31 24 31 27 23 26 30 29 31 30 24 20 21 20 18 18 17 16 23 24 21 19 20 19 18 18 19 17 9 6 5 17 21 18 13 10 18 23
20 23 26 29 31 31 31 29 32 23 31 27 29 25 27 30 31 30 29 25 19 22 21 19 16 23 22 20 20 12 9 14 6 6 8 10 13 15 9 4 4 4 7 13 16 24 6
19 21 22 27 29 30 31 21 30 23 26 28 28 27 28 27 28 25 16 16 19 18 20 22 22 23 16 16 17 15 13 15 7 6 5 8 11 20 20 10 10 16 15 13 8 14 21
19 20 21 25 28 29 25 33 29 21 22 24 29 26 22 24 22 18 15 18 19 18 18 18 20 19 17 16 12 12 10 10 9 11 8 8 6 7 8 8 9 7 13 14 19 24 28
18 20 20 24 26 27 31 31 31 18 22 25 27 26 24 24 19 16 21 21 19 16 19 17 18 22 13 10 10 8 9 9 11 7 13 9 12 6 9 8 16 21 23 22 27 25 26
Wind_Direction
188 185 187 186 188 188 229 289 330 331 337 340 335 340 349 345 351 347 352 1 360 353 5 16 342 327 310 314 304 295 281 282 279 275 269 269 264 271 267 248 217 196 190 193 197 207 229
211 210 211 216 227 236 256 286 299 317 326 323 315 327 329 340 342 340 348 352 346 332 335 326 319 310 310 301 291 287 286 286 282 275 272 267 263 261 251 239 225 210 198 206 214 216 229
231 232 232 235 243 255 266 278 293 304 311 311 310 313 325 332 334 338 341 342 338 333 317 315 317 307 302 296 290 292 287 282 278 274 272 265 256 253 254 251 240 224 224 224 241 247 244
246 248 247 249 258 265 271 284 296 302 304 303 303 306 318 330 329 334 339 340 337 329 320 313 312 310 303 297 296 296 293 287 278 272 267 262 256 253 250 247 242 226 236 244 242 241 239
257 262 266 269 272 277 283 289 296 297 297 297 295 300 313 322 327 332 338 341 339 333 322 313 308 306 305 301 310 305 301 294 285 275 266 259 253 251 252 250 251 247 243 248 235 232 241
264 268 272 274 278 281 283 284 285 287 290 290 291 296 309 317 323 329 334 338 337 333 325 319 308 305 292 302 303 302 297 287 273 268 266 263 257 255 252 249 249 242 246 249 241 239 240
248 259 269 273 277 281 282 283 285 284 285 287 288 293 305 315 320 325 331 333 334 332 327 317 302 296 296 300 301 300 301 291 274 257 253 250 246 247 251 254 262 263 257 255 247 242 247
254 256 257 260 266 272 275 277 282 288 287 284 284 288 302 310 316 320 327 328 330 324 320 313 304 296 293 293 291 293 296 292 291 271 223 231 241 246 244 243 244 252 261 263 264 259 257
253 259 263 267 271 273 277 281 282 282 285 288 287 287 291 302 310 315 321 324 325 323 319 309 310 305 293 293 283 286 289 297 310 315 303 277 272 265 262 260 262 266 272 278 274 276 271
263 259 262 269 267 271 279 281 283 286 288 288 287 286 287 294 302 311 319 325 324 324 308 305 328 307 322 293 270 289 291 299 296 303 308 294 279 274 278 281 277 275 279 273 273 278 267
263 271 271 263 267 272 275 280 284 288 288 289 288 288 290 292 300 308 317 325 328 329 2 314 348 351 325 306 313 309 310 300 295 297 294 286 279 283 285 280 275 273 274 277 280 282 278
256 262 269 274 272 265 267 275 284 286 288 292 292 293 292 293 300 306 316 323 327 319 268 292 313 326 328 321 309 303 299 298 300 296 293 288 284 280 278 273 263 267 279 290 281 269 261
258 262 265 271 275 277 279 274 276 284 290 290 292 295 297 297 299 304 311 318 325 245 306 296 312 313 302 299 298 295 293 292 290 295 285 291 283 273 266 262 265 267 273 288 292 198 239
247 255 264 267 270 276 278 281 282 279 282 289 292 294 297 297 297 300 303 307 264 276 287 295 304 307 301 300 297 295 297 296 295 284 280 275 270 255 258 255 258 259 230 228 269 234 271
246 256 255 260 261 266 269 274 280 286 295 296 297 295 295 295 295 296 295 288 266 278 282 296 299 298 293 293 289 296 295 291 284 280 268 270 243 225 264 268 263 253 235 257 264 279 288
236 245 247 258 266 265 267 267 273 283 293 298 301 304 306 302 297 293 287 281 273 280 286 290 289 280 279 291 295 294 289 277 274 277 274 267 276 257 267 263 262 257 261 245 224 284 270
242 233 240 257 260 262 266 264 272 278 287 293 294 297 299 300 300 295 288 287 290 288 287 283 282 279 284 288 288 285 272 280 273 275 273 275 269 268 267 262 267 265 251 243 242 241 250
250 247 247 250 239 255 258 259 269 281 281 287 289 291 290 293 296 292 291 291 290 287 284 282 280 282 282 285 287 282 268 267 276 274 276 274 279 272 277 277 269 257 255 250 228 228 229
241 254 244 227 243 253 256 264 268 267 286 289 289 281 285 280 283 295 295 286 283 282 281 282 280 282 285 284 281 263 267 269 269 272 271 276 260 296 286 281 270 260 263 258 257 259 255
248 255 265 263 266 253 277 268 267 284 276 272 287 288 287 280 274 283 283 283 280 283 279 281 281 281 281 278 273 265 265 266 265 271 284 276 264 265 259 277 284 277 279 273 263 261 265
256 255 257 255 257 263 264 270 290 277 270 276 294 287 278 271 263 276 281 278 278 279 276 278 280 281 280 277 277 272 275 274 279 291 280 270 271 272 272 274 277 279 280 277 268 272 261
255 254 248 246 247 252 258 251 269 267 259 274 278 281 279 273 266 268 270 278 282 278 271 273 273 278 278 275 275 276 275 283 294 297 281 273 271 278 281 282 278 279 281 277 270 269 269
256 253 250 250 244 245 245 270 253 259 266 275 281 285 279 275 266 269 275 280 279 275 273 269 273 276 277 273 272 289 296 293 286 280 279 274 270 282 284 287 295 289 278 264 264 261 283
255 253 248 245 243 239 241 257 255 253 255 260 267 275 269 277 282 277 278 276 272 273 272 275 276 278 277 270 288 295 286 281 281 277 272 267 271 272 276 298 263 271 263 249 251 281 293
259 255 249 243 240 235 237 241 245 264 251 265 267 264 277 276 281 280 273 266 266 269 268 275 277 276 274 285 285 288 289 282 276 272 267 263 258 258 265 250 282 283 271 273 281 296 295
268 260 252 242 239 236 230 237 247 251 263 253 259 259 267 277 272 274 264 262 255 260 271 267 276 280 280 271 280 264 254 275 257 261 253 249 243 238 242 247 263 233 261 287 300 303 295
279 274 259 240 234 229 233 232 251 254 256 257 251 258 267 273 268 267 249 245 253 256 265 275 276 285 278 274 257 259 254 251 251 238 240 240 246 239 246 246 262 271 283 299 297 306 308
281 278 270 244 231 226 242 234 254 244 249 244 253 262 269 260 255 252 255 252 261 260 262 271 284 274 271 255 255 251 246 243 247 250 270 249 243 220 223 231 261 272 290 296 299 305 308
281 280 272 243 228 231 238 247 252 246 250 253 264 273 265 247 246 249 251 257 259 253 264 271 261 274 260 253 245 246 253 260 265 271 256 258 231 247 227 243 281 294 301 302 306 308 309